Date String (YYYY-MM-DD hh:mm:ss) UTC,Instrument flags,absolute air pressure of the measurement (hPa),sample flow rate (lpm),inlet stack bypass flow (lpm),air temperature of the measurement (°C),ambient temperature measured by the external sensor (°C),aerosol sample conditioner tube jacket temperature (°C),OPC LED temperature (°C),internal box temperature (°C),relative humidity of the measurement (%),span deviation,mass concentration of particles derived from Lorenz-Mie calculation of OPC scattering (μg/m³),mass concentration of particles derived from Lorenz-Mie calculation of OPC scattering (μg/m³),mass concentration of particles derived from Lorenz-Mie calculation of OPC scattering (μg/m³)
DateTimeUTC,F1_M11,P_M11,Q1_M11,Q2_M11,T1_M11,T2_M11,T3_M11,T4_M11,T5_M11,U1_M11,ZSPAN_M11,X0_M11,X2_M11,X1_M11
2023-09-05 13:00:00,SystemResetWarning,0831.4,4.99,000.00,028.9,027.4,000.0,037.3,030.4,21.8,0000.0,0003.31,0001.37,0000.88
2023-09-05 13:01:00,SystemResetWarning,0831.4,5.00,000.00,028.9,027.4,000.0,037.3,030.4,21.8,0000.0,0003.21,0001.37,0000.88
2023-09-05 13:02:00,SystemResetWarning,0831.4,5.00,000.00,028.9,027.4,000.0,037.3,030.4,21.9,0000.0,0003.43,0001.38,0000.89
2023-09-05 13:03:00,SystemResetWarning,0831.4,5.00,000.00,028.9,027.4,000.0,037.3,030.3,21.9,0000.0,0003.46,0001.39,0000.89
2023-09-05 13:04:00,SystemResetWarning,0831.4,5.00,000.00,028.9,027.4,000.0,037.3,030.3,21.9,0000.0,0003.21,0001.32,0000.90
2023-09-05 13:05:00,SystemResetWarning,0831.4,5.00,000.00,028.9,027.4,000.0,037.3,030.4,22.0,0000.0,0003.07,0001.28,0000.89
2023-09-05 13:06:00,SystemResetWarning,0831.4,5.00,000.00,028.9,027.4,000.0,037.3,030.3,22.2,0000.0,0003.00,0001.24,0000.89
2023-09-05 13:07:00,SystemResetWarning,0831.4,5.00,000.00,028.9,027.4,000.0,037.3,030.3,22.2,0000.0,0003.13,0001.28,0000.89
2023-09-05 13:08:00,SystemResetWarning,0831.3,5.00,000.00,028.9,027.4,000.0,037.3,030.3,22.3,0000.0,0003.18,0001.30,0000.90
2023-09-05 13:09:00,SystemResetWarning,0831.3,5.00,000.00,028.9,027.4,000.0,037.3,030.3,22.1,0000.0,0002.72,0001.31,0000.90
2023-09-05 13:10:00,SystemResetWarning,0831.3,5.00,000.00,028.9,027.4,000.0,037.3,030.3,22.0,0000.0,0003.26,0001.28,0000.90
2023-09-05 13:11:00,SystemResetWarning,0831.3,5.00,000.00,028.8,027.4,000.0,037.3,030.3,22.1,0000.0,0003.28,0001.29,0000.90
2023-09-05 13:12:00,SystemResetWarning,0831.4,5.00,000.00,028.8,027.4,000.0,037.3,030.3,22.3,0000.0,0003.35,0001.30,0000.91
2023-09-05 13:13:00,SystemResetWarning,0831.4,5.00,000.00,028.8,027.4,000.0,037.2,030.3,22.1,0000.0,0003.60,0001.30,0000.91
2023-09-05 13:14:00,SystemResetWarning,0831.5,5.00,000.00,028.8,027.4,000.0,037.2,030.3,22.1,0000.0,0003.49,0001.27,0000.90
2023-09-05 13:15:00,SystemResetWarning,0831.5,5.00,000.00,028.8,027.4,000.0,037.2,030.2,22.1,0000.0,0003.74,0001.30,0000.90
2023-09-05 13:16:00,SystemResetWarning,0831.5,5.00,000.00,028.8,027.4,000.0,037.2,030.3,22.0,0000.0,0003.97,0001.30,0000.90
2023-09-05 13:17:00,SystemResetWarning,0831.5,5.00,000.00,028.8,027.4,000.0,037.2,030.3,22.1,0000.0,0004.31,0001.29,0000.90
2023-09-05 13:18:00,SystemResetWarning,0831.6,5.00,000.00,028.8,027.4,000.0,037.2,030.3,22.3,0000.0,0004.21,0001.26,0000.89
2023-09-05 13:19:00,SystemResetWarning,0831.6,5.00,000.00,028.8,027.4,000.0,037.2,030.3,22.3,0000.0,0004.32,0001.29,0000.88
2023-09-05 13:20:00,SystemResetWarning,0831.6,5.00,000.00,028.8,027.4,000.0,037.2,030.3,22.3,0000.0,0004.39,0001.30,0000.89
2023-09-05 13:21:00,SystemResetWarning,0831.6,5.00,000.00,028.8,027.4,000.0,037.2,030.3,22.2,0000.0,0003.64,0001.32,0000.89
2023-09-05 13:22:00,SystemResetWarning,0831.6,5.00,000.00,028.8,027.4,000.0,037.2,030.3,22.3,0000.0,0003.64,0001.35,0000.89
2023-09-05 13:23:00,SystemResetWarning,0831.6,5.00,000.00,028.8,027.4,000.0,037.2,030.3,22.3,0000.0,0004.77,0001.34,0000.89
2023-09-05 13:24:00,SystemResetWarning,0831.6,5.01,000.00,028.8,027.4,000.0,037.2,030.3,22.3,0000.0,0004.72,0001.31,0000.89
2023-09-05 13:25:00,SystemResetWarning,0831.6,5.01,000.00,028.8,027.4,000.0,037.2,030.3,22.3,0000.0,0006.12,0001.33,0000.90
2023-09-05 13:26:00,SystemResetWarning,0831.6,4.99,000.00,028.8,027.4,000.0,037.2,030.4,22.4,0000.0,0006.52,0001.35,0000.90
2023-09-05 13:27:00,SystemResetWarning,0831.7,5.00,000.00,028.9,027.5,000.0,037.2,030.4,22.5,0000.0,0006.31,0001.38,0000.90
2023-09-05 13:28:00,SystemResetWarning,0831.7,5.00,000.00,028.9,027.5,000.0,037.2,030.4,22.7,0000.0,0006.03,0001.41,0000.92
2023-09-05 13:29:00,SystemResetWarning,0831.7,5.00,000.00,028.9,027.5,000.0,037.2,030.4,22.9,0000.0,0007.48,0001.43,0000.93
2023-09-05 13:30:00,SystemResetWarning,0831.7,5.00,000.00,028.9,027.5,000.0,037.2,030.4,22.9,0000.0,0008.01,0001.41,0000.94
2023-09-05 13:31:00,SystemResetWarning,0831.7,5.00,000.00,028.9,027.6,000.0,037.2,030.5,22.9,0000.0,0008.40,0001.39,0000.94
2023-09-05 13:32:00,SystemResetWarning,0831.6,4.99,000.00,028.9,027.6,000.0,037.3,030.5,22.9,0000.0,0009.23,0001.45,0000.93
2023-09-05 13:33:00,SystemResetWarning,0831.7,4.99,000.00,028.9,027.6,000.0,037.3,030.5,22.7,0000.0,0009.28,0001.47,0000.94
2023-09-05 13:34:00,SystemResetWarning,0831.7,4.99,000.00,028.9,027.4,000.0,037.3,030.5,22.6,0000.0,0008.67,0001.47,0000.94
2023-09-05 13:35:00,SystemResetWarning,0831.7,5.00,000.00,028.9,026.0,000.0,037.2,030.0,22.6,0000.0,0008.51,0001.50,0000.94
2023-09-05 13:36:00,SystemResetWarning,0831.7,5.00,000.00,028.7,024.4,000.0,037.1,029.5,22.6,0000.0,0007.84,0001.50,0000.94
2023-09-05 13:37:00,SystemResetWarning,0831.7,5.01,000.00,028.5,024.2,000.0,037.0,029.4,22.5,0000.0,0007.49,0001.50,0000.95
2023-09-05 13:38:00,SystemResetWarning,0831.7,5.00,000.00,028.4,024.4,000.0,037.0,029.3,23.1,0000.0,0007.61,0001.53,0000.96
2023-09-05 13:39:00,SystemResetWarning,0831.7,4.99,000.00,028.3,024.8,000.0,036.9,029.4,23.4,0000.0,0007.61,0001.54,0000.96
2023-09-05 13:40:00,SystemResetWarning,0831.7,5.00,000.00,028.3,025.2,000.0,036.9,029.5,23.3,0000.0,0006.25,0001.52,0000.95
2023-09-05 13:41:00,SystemResetWarning,0831.9,5.01,000.00,028.3,025.5,000.0,036.9,029.6,23.5,0000.0,0005.36,0001.53,0000.94
2023-09-05 13:42:00,SystemResetWarning,0831.7,5.00,000.00,028.3,025.8,000.0,036.8,029.7,23.3,0000.0,0004.68,0001.56,0000.95
2023-09-05 13:43:00,SystemResetWarning,0831.7,5.00,000.00,028.3,026.0,000.0,036.8,029.7,23.1,0000.0,0003.35,0001.54,0000.95
2023-09-05 13:44:00,SystemResetWarning,0831.6,5.01,000.00,028.3,026.2,000.0,036.8,029.8,22.9,0000.0,0003.27,0001.52,0000.95
2023-09-05 13:45:00,SystemResetWarning,0831.6,5.00,000.00,028.3,026.4,000.0,036.8,029.8,22.5,0000.0,0003.29,0001.52,0000.96
2023-09-05 13:46:00,SystemResetWarning,0831.6,5.00,000.00,028.3,026.5,000.0,036.8,029.8,22.5,0000.0,0003.24,0001.54,0000.97
2023-09-05 13:47:00,SystemResetWarning,0831.6,5.00,000.00,028.3,026.5,000.0,036.8,029.8,22.6,0000.0,0003.28,0001.58,0000.97
2023-09-05 13:48:00,SystemResetWarning,0831.6,5.00,000.00,028.3,026.6,000.0,036.8,029.8,22.9,0000.0,0003.43,0001.60,0000.96
2023-09-05 13:49:00,SystemResetWarning,0831.6,5.00,000.00,028.3,026.7,000.0,036.7,029.8,23.0,0000.0,0003.27,0001.58,0000.95
2023-09-05 13:50:00,SystemResetWarning,0831.6,5.01,000.00,028.3,026.7,000.0,036.7,029.9,23.2,0000.0,0003.23,0001.56,0000.95
2023-09-05 13:51:00,SystemResetWarning,0831.6,5.00,000.00,028.3,026.8,000.0,036.7,029.9,23.3,0000.0,0003.25,0001.58,0000.95
2023-09-05 13:52:00,SystemResetWarning,0831.6,5.00,000.00,028.3,026.8,000.0,036.7,029.9,23.5,0000.0,0003.12,0001.56,0000.95
2023-09-05 13:53:00,SystemResetWarning,0831.5,5.00,000.00,028.4,026.8,000.0,036.7,029.9,22.9,0000.0,0002.92,0001.52,0000.94
2023-09-05 13:54:00,SystemResetWarning,0831.5,5.00,000.00,028.4,026.9,000.0,036.7,029.9,22.8,0000.0,0002.83,0001.50,0000.94
2023-09-05 13:55:00,SystemResetWarning,0831.6,5.00,000.00,028.4,026.9,000.0,036.7,029.9,23.0,0000.0,0002.83,0001.51,0000.93
2023-09-05 13:56:00,SystemResetWarning,0831.6,5.00,000.00,028.4,026.9,000.0,036.7,030.0,22.9,0000.0,0002.92,0001.54,0000.93
2023-09-05 13:57:00,SystemResetWarning,0831.6,4.99,000.00,028.4,026.9,000.0,036.7,030.0,23.0,0000.0,0004.45,0001.54,0000.93
2023-09-05 13:58:00,SystemResetWarning,0831.7,4.99,000.00,028.4,027.0,000.0,036.7,029.9,23.0,0000.0,0004.96,0001.54,0000.93
2023-09-05 13:59:00,SystemResetWarning,0831.7,4.99,000.00,028.4,027.0,000.0,036.7,030.0,23.0,0000.0,0004.84,0001.49,0000.93
